GEOFB HRYR-HBBA

Flight info

Callsign GEOFB
Flight time 0h 20m
Altitude 20000
Route GADBO DCT XABOB DCT GAVDA
Aircraft C750/M-SBDE3FGHRWXY/S

Departure

Time 2026-04-27 14:22
Airport Kigali International Airport (HRYR)

Arrival

Time 2026-04-27 14:42
Airport Bujumbura Melchior Ndadaye International Airport (HBBA)
Time Latitude Longitude Altitude Speed Heading
2026-04-27 14:20 -1.96835 30.13760 4900 ft 0 kts 99°
2026-04-27 14:21 -1.96839 30.13782 4900 ft 25 kts 98°
2026-04-27 14:21 -1.96936 30.14344 4896 ft 131 kts 99°
2026-04-27 14:21 -1.97119 30.15409 4965 ft 176 kts 99°
2026-04-27 14:21 -1.97323 30.16772 5180 ft 222 kts 98°
2026-04-27 14:22 -1.97731 30.18366 5552 ft 254 kts 117°
2026-04-27 14:22 -1.99062 30.19600 6035 ft 278 kts 155°
2026-04-27 14:22 -2.00963 30.19769 7141 ft 281 kts 190°
2026-04-27 14:22 -2.02675 30.18819 8163 ft 290 kts 224°
2026-04-27 14:23 -2.03811 30.17149 9335 ft 292 kts 240°
2026-04-27 14:23 -2.04792 30.15355 10323 ft 299 kts 240°
2026-04-27 14:23 -2.05969 30.13546 10794 ft 322 kts 234°
2026-04-27 14:23 -2.07371 30.11687 11070 ft 348 kts 232°
2026-04-27 14:24 -2.08843 30.09662 11464 ft 366 kts 235°
2026-04-27 14:24 -2.10253 30.07583 12383 ft 367 kts 236°
2026-04-27 14:24 -2.11989 30.05702 13025 ft 373 kts 216°
2026-04-27 14:24 -2.14208 30.04371 13866 ft 373 kts 208°
2026-04-27 14:25 -2.16503 30.03149 14572 ft 377 kts 210°
2026-04-27 14:25 -2.18721 30.01723 15334 ft 380 kts 213°
2026-04-27 14:25 -2.20944 30.00268 16053 ft 384 kts 211°
2026-04-27 14:25 -2.23257 29.98918 16801 ft 387 kts 209°
2026-04-27 14:26 -2.25610 29.97581 17548 ft 391 kts 210°
2026-04-27 14:26 -2.27918 29.96189 18285 ft 394 kts 211°
2026-04-27 14:26 -2.30266 29.94742 19022 ft 399 kts 211°
2026-04-27 14:26 -2.32646 29.93317 19711 ft 393 kts 210°
2026-04-27 14:27 -2.35040 29.91906 19979 ft 411 kts 210°
2026-04-27 14:27 -2.37540 29.90414 19976 ft 421 kts 211°
2026-04-27 14:27 -2.40060 29.88891 19973 ft 426 kts 211°
2026-04-27 14:27 -2.42604 29.87363 19972 ft 428 kts 211°
2026-04-27 14:28 -2.45160 29.85839 19977 ft 428 kts 211°
2026-04-27 14:28 -2.47724 29.84307 19976 ft 429 kts 211°
2026-04-27 14:28 -2.50245 29.82794 19966 ft 429 kts 211°
2026-04-27 14:28 -2.52804 29.81259 19967 ft 429 kts 211°
2026-04-27 14:29 -2.55372 29.79723 19960 ft 429 kts 210°
2026-04-27 14:29 -2.57935 29.78189 19960 ft 430 kts 210°
2026-04-27 14:29 -2.60496 29.76654 19951 ft 430 kts 211°
2026-04-27 14:29 -2.63060 29.75115 19951 ft 430 kts 211°
2026-04-27 14:30 -2.65627 29.73577 19958 ft 430 kts 210°
2026-04-27 14:30 -2.68189 29.72045 19998 ft 424 kts 210°
2026-04-27 14:30 -2.70621 29.70587 19497 ft 406 kts 210°
2026-04-27 14:30 -2.73030 29.69142 18987 ft 402 kts 210°
2026-04-27 14:31 -2.75419 29.67710 18483 ft 399 kts 210°
2026-04-27 14:31 -2.77800 29.66285 17972 ft 397 kts 210°
2026-04-27 14:31 -2.80078 29.64764 17425 ft 395 kts 219°
2026-04-27 14:31 -2.81891 29.62715 16886 ft 393 kts 230°
2026-04-27 14:32 -2.83591 29.60584 16397 ft 390 kts 231°
2026-04-27 14:32 -2.85292 29.58480 15908 ft 388 kts 230°
2026-04-27 14:32 -2.86997 29.56402 15421 ft 385 kts 230°
2026-04-27 14:32 -2.88662 29.54363 14934 ft 383 kts 230°
2026-04-27 14:33 -2.90330 29.52302 14431 ft 380 kts 230°
2026-04-27 14:33 -2.91992 29.50252 13932 ft 378 kts 230°
2026-04-27 14:33 -2.93645 29.48219 13429 ft 375 kts 230°
2026-04-27 14:33 -2.95287 29.46202 12927 ft 372 kts 230°
2026-04-27 14:34 -2.96914 29.44201 12430 ft 370 kts 230°
2026-04-27 14:34 -2.98527 29.42213 11932 ft 367 kts 230°
2026-04-27 14:34 -3.00100 29.40276 11187 ft 334 kts 230°
2026-04-27 14:34 -3.01488 29.38566 10430 ft 305 kts 230°
2026-04-27 14:35 -3.02802 29.36952 9681 ft 300 kts 230°
2026-04-27 14:35 -3.04108 29.35346 8921 ft 296 kts 230°
2026-04-27 14:35 -3.05391 29.33766 8169 ft 292 kts 230°
2026-04-27 14:35 -3.06648 29.32216 7419 ft 272 kts 230°
2026-04-27 14:36 -3.07759 29.30846 7070 ft 245 kts 230°
2026-04-27 14:36 -3.08844 29.29540 6778 ft 242 kts 227°
2026-04-27 14:36 -3.10210 29.28673 6360 ft 225 kts 195°
2026-04-27 14:36 -3.11678 29.28598 6282 ft 201 kts 173°
2026-04-27 14:37 -3.13005 29.28802 6293 ft 187 kts 170°
2026-04-27 14:37 -3.14209 29.28995 6054 ft 180 kts 170°
2026-04-27 14:37 -3.15461 29.29191 5807 ft 184 kts 170°
2026-04-27 14:37 -3.16731 29.29390 5546 ft 185 kts 170°
2026-04-27 14:38 -3.17913 29.29576 5297 ft 159 kts 170°
2026-04-27 14:38 -3.18922 29.29736 5074 ft 137 kts 170°
2026-04-27 14:38 -3.19835 29.29876 4886 ft 129 kts 171°
2026-04-27 14:38 -3.20717 29.30016 4716 ft 128 kts 171°
2026-04-27 14:39 -3.21601 29.30154 4531 ft 128 kts 171°
2026-04-27 14:39 -3.22468 29.30292 4360 ft 127 kts 171°
2026-04-27 14:39 -3.23341 29.30429 4178 ft 127 kts 171°
2026-04-27 14:39 -3.24208 29.30565 3995 ft 126 kts 172°
2026-04-27 14:40 -3.25074 29.30698 3824 ft 125 kts 172°
2026-04-27 14:40 -3.25931 29.30835 3643 ft 123 kts 172°
2026-04-27 14:40 -3.26783 29.30967 3471 ft 125 kts 172°
2026-04-27 14:40 -3.27644 29.31102 3296 ft 126 kts 171°
2026-04-27 14:41 -3.28501 29.31243 3114 ft 124 kts 171°
2026-04-27 14:41 -3.29365 29.31373 2934 ft 126 kts 171°
2026-04-27 14:41 -3.30233 29.31511 2758 ft 127 kts 171°
2026-04-27 14:41 -3.31089 29.31645 2611 ft 123 kts 171°
2026-04-27 14:42 -3.31904 29.31769 2580 ft 113 kts 171°
2026-04-27 14:42 -3.32545 29.31870 2573 ft 51 kts 171°
2026-04-27 14:42 -3.32649 29.31886 2570 ft 0 kts 170°
2026-04-27 14:43 -3.32652 29.31887 2573 ft 4 kts 169°
2026-04-27 14:43 -3.32734 29.31909 2572 ft 20 kts 164°
2026-04-27 14:44 -3.32913 29.31973 2568 ft 33 kts 123°
2026-04-27 14:44 -3.32858 29.32020 2567 ft 20 kts 347°